Weather History for Fort Polk, LA

Change the Weather History Date:

Monday, December 2, 2013

  Actual Average (KPOE) Record (KPOE)
Temperature  
Mean Temperature 62 °F -  
Max Temperature 71 °F 62 °F 78 °F (2012)
Min Temperature 53 °F 43 °F 28 °F (2008)
Degree Days  
Heating Degree Days 3    
Growing Degree Days 12 (Base 50)    
Moisture  
Dew Point 56 °F    
Average Humidity 89    
Maximum Humidity 100    
Minimum Humidity 61    
Precipitation  
Precipitation 0.00 in - - ()
Sea Level Pressure  
Sea Level Pressure 29.78 in    
Wind  
Wind Speed 3 mph (SSW)    
Max Wind Speed 7 mph    
Max Gust Speed -    
Visibility 6 miles    
Events Fog    
Averages and records for this station are not official NWS values.
T = Trace of Precipitation, MM = Missing Value Source: NWS Daily Summary

Daily Weather History Graph

Daily Weather History Graph

Search for Another Location

Airport:

Trip Planner

Search our weather history database for the weather conditions in past years. The results will help you decide how hot, cold, wet, or windy it might be!

Date:

Astronomy

Dec. 02, 2013 Rise Set
Actual Time 6:55 AM CST 5:09 PM CST
Civil Twilight 6:28 AM CST 5:36 PM CST
Nautical Twilight 5:58 AM CST 6:06 PM CST
Astronomical Twilight 5:29 AM CST 6:35 PM CST
Moon 6:23 AM CST (12/2) 5:11 PM CST (12/2)
Length of Visible Light 11h 07m
Length of Day
10h 14m
Waning Crescent, 0% of the Moon is Illuminated
Dec 2
Waning Crescent
Dec 2
New
Dec 9
First Quarter
Dec 17
Full
Dec 25
Last Quarter

Hourly Weather History & Observations

Time (CST) Temp. Dew Point Humidity Pressure Visibility Wind Dir Wind Speed Gust Speed Precip Events Conditions
12:04 AM 60.8 °F 53.6 °F 77% 29.96 in 10.0 mi South 3.5 mph - N/A   Overcast
12:13 AM 60.8 °F 53.6 °F 77% 29.95 in 10.0 mi Variable 3.5 mph - N/A   Overcast
12:56 AM 61.0 °F 55.0 °F 81% 29.93 in 10.0 mi South 4.6 mph - N/A   Overcast
1:56 AM 60.1 °F 55.0 °F 83% 29.91 in 10.0 mi SSW 5.8 mph - N/A   Overcast
2:56 AM 60.1 °F 55.9 °F 86% 29.89 in 10.0 mi Variable 5.8 mph - N/A   Partly Cloudy
3:56 AM 57.9 °F 55.9 °F 93% 29.87 in 10.0 mi South 3.5 mph - N/A   Partly Cloudy
4:56 AM 59.0 °F 57.0 °F 93% 29.84 in 10.0 mi South 3.5 mph - N/A   Scattered Clouds
5:32 AM 60.8 °F 57.2 °F 88% 29.84 in 10.0 mi Calm Calm - N/A   Mostly Cloudy
5:48 AM 60.8 °F 57.2 °F 88% 29.84 in 10.0 mi Variable 3.5 mph - N/A   Overcast
5:56 AM 61.0 °F 59.0 °F 93% 29.83 in 10.0 mi South 3.5 mph - N/A   Overcast
6:56 AM 61.0 °F 59.0 °F 93% 29.83 in 10.0 mi South 3.5 mph - N/A   Overcast
7:56 AM 63.0 °F 60.1 °F 90% 29.82 in 10.0 mi Variable 3.5 mph - N/A   Overcast
8:56 AM 63.0 °F 60.1 °F 90% 29.82 in 10.0 mi Variable 5.8 mph - N/A   Overcast
9:56 AM 63.0 °F 60.1 °F 90% 29.83 in 10.0 mi SW 5.8 mph - N/A   Overcast
10:23 AM 64.4 °F 60.8 °F 88% 29.82 in 10.0 mi Variable 3.5 mph - N/A   Overcast
10:56 AM 64.9 °F 59.0 °F 81% 29.81 in 10.0 mi Variable 6.9 mph - N/A   Overcast
11:56 AM 66.9 °F 57.9 °F 73% 29.78 in 10.0 mi Variable 5.8 mph - N/A   Mostly Cloudy
12:49 PM 68.0 °F 57.2 °F 68% 29.77 in 8.0 mi Variable 4.6 mph - N/A   Scattered Clouds
12:56 PM 69.1 °F 57.9 °F 68% 29.77 in 8.0 mi Variable 4.6 mph - N/A   Scattered Clouds
1:26 PM 68.0 °F 57.2 °F 68% 29.75 in 8.0 mi Calm Calm - N/A   Mostly Cloudy
1:56 PM 68.0 °F 57.0 °F 68% 29.73 in 9.0 mi Variable 3.5 mph - N/A   Scattered Clouds
2:56 PM 71.1 °F 57.0 °F 61% 29.70 in 10.0 mi Calm Calm - N/A   Clear
4:56 PM 64.0 °F 60.1 °F 87% 29.70 in 10.0 mi Calm Calm - N/A   Clear
5:56 PM 57.9 °F 57.0 °F 97% 29.69 in 4.0 mi Calm Calm - N/A   Clear
6:15 PM 57.2 °F 57.2 °F 100% 29.69 in 2.0 mi Calm Calm - N/A   Clear
6:56 PM 57.0 °F 55.9 °F 96% 29.70 in 2.5 mi Calm Calm - N/A   Clear
7:53 PM 55.4 °F 55.4 °F 100% 29.73 in 5.0 mi Calm Calm - N/A   Clear
7:56 PM 55.9 °F 54.0 °F 93% 29.73 in 5.0 mi Calm Calm - N/A   Clear
8:17 PM 55.4 °F 53.6 °F 94% 29.73 in 2.5 mi Calm Calm - N/A   Clear
8:33 PM 55.4 °F 53.6 °F 94% 29.74 in 1.5 mi Calm Calm - N/A   Clear
8:42 PM 53.6 °F 53.6 °F 100% 29.74 in 3.0 mi Calm Calm - N/A   Clear
8:56 PM 54.0 °F 53.1 °F 97% 29.73 in 3.0 mi Calm Calm - N/A   Clear
9:32 PM 55.4 °F 55.4 °F 100% 29.73 in 1.8 mi Calm Calm - N/A   Clear
9:45 PM 55.4 °F 55.4 °F 100% 29.73 in 2.5 mi Calm Calm - N/A   Clear
9:56 PM 55.9 °F 54.0 °F 93% 29.73 in 2.0 mi Variable 3.5 mph - N/A   Clear
10:17 PM 57.2 °F 55.4 °F 94% 29.72 in 1.5 mi Calm Calm - N/A   Clear
10:24 PM 55.4 °F 55.4 °F 100% 29.72 in 0.8 mi Calm Calm - N/A   Mist
10:33 PM 57.2 °F 55.4 °F 94% 29.73 in 1.2 mi Calm Calm - N/A   Partly Cloudy
10:39 PM 57.2 °F 55.4 °F 94% 29.73 in 3.0 mi Calm Calm - N/A   Clear
10:44 PM 57.2 °F 57.2 °F 100% 29.73 in 1.8 mi Calm Calm - N/A   Clear
10:49 PM 55.4 °F 55.4 °F 100% 29.73 in 0.8 mi Calm Calm - N/A   Mist
10:56 PM 55.0 °F 55.0 °F 100% 29.72 in 0.5 mi Calm Calm - N/A Fog Fog
11:30 PM 55.4 °F 53.6 °F 94% 29.72 in 0.5 mi Calm Calm - N/A Fog Fog
11:56 PM 55.9 °F 55.9 °F 100% 29.71 in 0.5 mi South 3.5 mph - N/A Fog Fog